CZ-3B R/B (44638 NORAD) Tracking and Keplerian Element Data

This shows tracking and keplerian element data for the satellite.

Feedback or suggestion? Click here.




ElementValue
Catalog44638
NameCZ-3B R/B
Epoch Orbit61
Epoch Day316.82318928
Epoch Year2019
RAAN243.8791
Inclination26.934
Eccentricity0.7259171
Argument of Perigee195.4925
Mean Anonmoly117.1599
Mean Motion2.348146
Decay Rate0.00018597
L11 44638U 19070B 19316.82318928 .00018597 12885-5 72761-3 0 9998
L22 44638 26.9340 243.8791 7259171 195.4925 117.1599 2.34814600 610

Live tracking and technical data element details for CZ-3B R/B (NORAD 44638). CZ-3B R/B can be tracked NOW for your location showing map with azimuth and elevation plus other details from your city location.

Track the satellite on the map from your city or location and see movement details for azimuth, elevation, latitude, longitude, range, height, and movement on the map or in text.







IsCatalogInMostPopularTable: catalog: 44638, numindb: 12
Update: records affected: 1



GetName: 44638 CZ-3B R/B

Hit Count: updated at: Thu, 05 Dec 2019 17:46:27 GMT